Vorticity
4 4 4 4 4 4 5 6 7 8 9 10 11 12 13 13 12 13 13 13 12 11 11 11 11 10 9 8 9 9 10 9 8 8 7 8 9 10 10 10 8 7 5 4 4 6 9 11 12 12 12 12 11 10 9 8 8 8 7 7 6 4 4 5 6 6 4 2 -0
4 4 4 4 4 4 5 5 6 7 9 10 10 11 11 12 12 12 12 10 9 9 10 11 10 9 8 8 10 11 12 13 14 12 10 9 10 11 11 10 9 8 8 7 8 11 14 15 15 14 14 14 13 13 12 12 11 11 10 10 8 6 4 2 2 2 4 5 5
6 5 5 5 6 6 6 7 8 9 10 11 12 12 11 11 11 11 11 11 10 10 10 10 10 9 9 10 9 8 8 10 12 11 10 9 9 10 11 12 13 13 14 14 14 14 14 13 13 13 14 15 16 17 17 17 16 16 14 12 10 8 7 6 4 4 5 8 10
8 8 8 7 7 7 7 8 8 8 9 10 10 11 11 11 11 10 10 11 11 10 10 9 9 10 10 10 9 9 9 11 10 9 8 9 10 12 13 15 16 16 16 14 12 11 10 11 12 13 14 15 16 17 18 18 19 19 18 15 13 11 10 8 7 7 8 10 13
8 8 8 8 7 7 7 7 7 7 8 8 8 8 9 9 9 9 9 9 9 10 10 10 10 10 11 10 11 11 10 10 9 9 11 14 16 17 17 17 16 14 11 9 8 8 10 11 11 12 12 12 12 13 14 16 18 19 20 18 17 15 12 10 8 8 9 12 14
6 6 7 7 7 6 6 6 6 6 6 6 6 6 6 7 7 8 8 8 8 8 8 8 7 6 6 7 8 9 9 8 8 11 14 18 19 18 16 14 10 8 6 6 8 9 10 10 10 10 10 9 10 10 11 12 14 15 16 18 17 16 14 12 10 10 10 12 13
6 6 6 6 6 6 6 6 6 6 6 6 6 6 6 6 6 6 6 6 7 7 7 7 7 7 7 5 4 5 6 7 9 12 16 18 17 15 12 8 6 6 6 6 7 8 9 9 9 8 8 8 8 9 10 10 12 13 15 16 16 16 15 14 13 12 12 14 14
7 8 8 8 7 7 7 7 7 7 7 7 7 6 6 6 6 6 5 4 5 5 5 4 5 6 7 5 5 6 8 8 9 11 13 15 13 11 8 6 6 6 7 7 7 7 7 7 7 7 7 7 8 8 9 10 11 13 15 16 17 18 18 16 15 13 12 12 12
11 11 11 10 10 9 9 9 9 8 8 8 8 7 6 6 5 4 4 3 3 3 4 5 5 5 5 4 4 6 7 7 7 8 9 10 10 8 7 6 6 5 5 5 4 4 4 4 5 6 6 7 8 8 9 10 11 12 13 15 16 18 18 18 15 13 12 11 9
15 15 14 14 13 12 11 11 11 10 10 9 8 8 7 5 4 3 3 3 2 1 1 0 1 1 2 2 2 3 3 3 2 3 4 6 7 7 6 5 4 3 2 2 1 1 2 3 4 6 7 7 8 8 8 9 9 10 11 12 14 15 16 16 14 12 11 11 9
15 15 15 15 14 14 14 13 13 12 12 11 9 7 6 4 4 4 4 4 4 4 3 2 3 3 2 2 2 2 1 0 -0 0 2 4 6 6 6 4 3 2 1 0 1 1 2 4 5 7 8 9 8 8 8 8 8 8 9 9 10 11 12 13 12 12 11 10 7
13 14 14 15 15 15 15 16 15 14 13 11 9 8 7 7 8 7 7 8 7 6 6 6 6 6 5 5 4 4 3 2 2 3 4 5 6 6 6 5 4 3 2 2 3 4 5 6 7 8 9 10 9 8 8 7 8 8 8 7 8 8 9 10 11 11 10 8 6
13 13 14 14 15 16 16 16 15 14 13 12 11 11 11 12 12 11 10 10 9 8 8 8 8 8 8 8 8 7 7 6 6 6 7 7 7 7 7 7 6 6 5 5 5 6 7 8 9 10 10 10 9 8 7 7 7 6 6 6 6 7 8 9 10 10 10 8 7
14 15 15 16 16 16 16 15 14 13 14 14 15 15 15 15 14 13 12 11 10 9 8 9 9 9 9 9 9 9 8 8 8 8 7 7 7 8 8 8 8 8 7 6 7 7 8 10 11 12 12 10 9 8 7 6 6 5 5 5 6 7 7 8 10 11 12 12 12
16 16 17 17 17 16 16 15 15 17 18 19 19 19 19 17 16 14 13 12 11 10 9 9 9 9 8 8 8 8 7 7 7 7 7 7 7 7 8 8 8 8 8 7 8 9 10 12 13 13 13 12 10 9 7 6 4 3 2 4 6 8 9 9 10 13 15 16 18
16 16 16 16 16 16 16 17 18 19 20 21 20 20 20 18 17 16 15 14 12 11 10 10 9 8 8 8 7 7 6 6 6 6 6 6 7 7 7 8 8 8 8 8 9 10 12 13 13 13 12 11 10 9 7 6 3 -0 -2 0 6 10 13 13 13 16 19 21 23
14 14 14 14 14 14 15 16 16 16 16 16 16 16 16 16 15 15 15 15 14 13 12 11 10 9 8 8 8 7 7 6 7 7 7 7 7 8 8 9 10 10 10 10 11 12 13 13 12 11 9 8 7 7 6 4 0 -3 -2 3 10 14 16 15 16 19 22 22 20
12 12 11 11 12 12 12 11 11 11 10 10 11 11 11 12 12 13 14 14 14 14 13 12 12 11 10 9 8 8 8 7 7 7 7 8 9 10 10 11 12 12 12 12 13 13 13 12 11 10 8 6 5 5 4 2 -1 -1 4 13 18 19 17 16 17 18 17 10 5
10 10 10 11 11 11 11 10 10 10 10 10 10 10 10 11 12 12 13 14 14 14 14 13 13 12 11 10 10 9 9 8 8 8 8 9 10 11 12 12 13 13 13 12 12 12 11 11 10 9 7 6 5 4 4 2 2 6 12 18 18 16 14 14 18 18 12 -0 -4
11 11 11 12 12 12 12 12 11 11 11 12 12 13 13 13 14 14 14 14 14 15 15 15 14 14 13 12 12 11 11 10 9 9 10 10 11 12 12 12 12 12 11 11 10 10 9 9 8 7 7 6 6 6 6 7 9 12 14 15 13 10 9 9 14 16 14 6 6
13 13 12 12 12 12 12 12 12 12 12 13 14 14 15 16 16 16 16 16 16 16 16 16 16 16 15 15 14 13 12 12 11 11 12 12 12 12 11 10 10 10 9 9 8 8 7 7 6 6 6 7 7 8 9 10 12 13 12 9 7 5 4 4 10 18 24 21 16
13 13 13 13 13 12 12 12 12 12 13 13 14 14 15 16 16 17 17 17 17 18 18 18 18 17 17 17 16 15 14 14 14 14 14 13 13 12 11 10 9 9 8 8 8 7 7 6 6 7 7 8 9 9 9 10 9 8 6 4 2 1 4 10 24 38 45 40 24
13 13 13 13 13 13 12 12 12 12 13 13 13 13 14 15 16 16 17 18 18 19 19 19 19 18 18 18 17 17 16 16 16 15 14 13 12 12 11 10 9 9 8 8 8 8 8 8 9 10 11 11 11 10 9 8 8 8 8 8 9 14 22 35 47 55 58 54 39
14 14 13 13 13 13 12 12 12 12 12 12 13 13 13 14 15 16 17 18 19 20 20 20 20 19 18 18 18 18 17 17 16 15 14 13 12 10 9 8 8 7 7 7 8 9 10 11 12 12 12 12 11 10 11 12 17 24 31 39 44 47 46 42 37 38 40 40 29
15 15 14 13 13 12 11 11 11 11 12 13 13 14 14 15 16 16 17 18 20 20 20 20 19 18 18 17 17 16 16 15 14 13 12 11 10 9 8 6 6 7 8 9 11 12 13 14 13 12 12 12 13 16 19 24 32 42 53 60 54 40 24 12 10 12 16 19 14
15 14 14 13 12 11 10 10 10 11 13 14 14 15 16 16 16 17 18 19 20 20 19 18 17 16 15 14 13 13 12 11 11 10 10 9 8 7 6 6 9 12 15 18 20 21 22 21 21 21 20 21 22 23 25 26 27 30 31 27 16 8 4 4 5 5 6 8 9
14 13 13 12 11 10 9 9 10 12 13 14 15 16 16 16 17 18 19 20 18 18 17 16 14 12 11 10 10 9 9 8 8 7 7 6 6 6 8 11 16 21 25 26 26 27 27 28 28 28 28 27 25 23 19 13 9 7 6 5 4 4 4 4 4 5 6 6 8
13 12 11 11 10 9 9 10 11 12 14 15 16 17 17 18 18 19 19 18 16 16 15 14 13 11 10 9 8 7 7 6 6 6 6 7 8 11 15 20 23 23 22 20 18 18 18 20 21 22 22 22 20 16 11 6 5 5 5 6 6 5 4 3 4 5 6 7 8
12 11 10 10 9 8 9 10 11 13 14 16 17 17 18 18 18 18 16 15 14 13 12 10 10 10 9 8 7 7 7 7 9 10 12 13 16 19 22 22 17 12 8 6 7 8 10 11 12 13 14 15 13 12 10 9 9 8 7 6 5 5 5 6 7 8 9 10 12
11 11 10 9 8 9 9 10 12 14 15 16 16 17 17 16 15 14 13 12 11 11 10 9 10 9 9 8 9 10 11 13 15 17 19 21 23 22 18 10 4 1 2 4 7 9 10 11 11 11 11 12 11 10 9 9 8 6 4 4 5 7 9 10 11 12 14 15 17
12 11 10 9 8 9 10 12 13 14 15 15 15 15 15 14 13 12 12 12 12 12 12 13 13 13 13 14 15 16 17 19 20 20 21 21 18 12 6 -1 -2 0 4 8 10 12 12 12 11 11 11 10 9 7 6 5 4 4 4 6 8 11 13 15 16 17 18 20 22
12 11 10 9 9 9 10 12 13 13 14 14 15 15 15 14 14 14 14 14 14 15 15 15 16 17 18 18 18 19 19 19 19 18 15 12 6 2 -2 -3 -0 3 7 11 13 13 13 12 12 11 11 10 7 6 4 3 4 6 9 12 15 17 19 20 21 22 22 24 25
12 12 10 9 9 10 11 12 12 12 12 13 14 14 15 16 16 15 14 14 14 15 15 16 17 17 18 18 17 16 16 14 12 9 6 2 -1 -2 -2 -0 3 7 11 14 16 15 14 13 13 12 11 9 8 7 7 8 10 13 16 18 20 22 23 23 24 24 25 25 25
13 12 11 10 10 11 11 11 11 11 11 12 12 13 13 14 14 14 14 13 13 13 13 13 13 13 12 12 11 10 8 6 4 1 -0 -2 -2 -0 1 4 9 13 17 19 19 18 16 14 14 13 12 10 10 11 12 14 17 19 21 22 23 24 24 25 25 25 24 23 20
12 11 11 12 12 11 11 10 10 10 10 10 10 11 11 11 11 12 12 12 11 10 10 9 9 8 7 6 5 4 2 1 -0 -1 -1 -0 1 3 6 11 16 20 21 21 19 17 16 14 13 13 13 13 14 16 18 20 22 22 22 22 23 24 24 24 22 20 18 15 11
10 9 9 10 10 10 9 8 9 9 10 9 9 9 9 9 9 9 9 9 9 8 8 7 6 5 4 3 2 1 0 -0 -0 0 1 3 6 10 15 20 22 22 20 18 15 13 12 12 12 13 14 16 18 20 21 22 22 22 22 22 23 23 21 19 16 12 9 6 3
9 8 6 6 7 6 6 6 7 8 8 8 8 7 7 7 7 7 7 7 7 6 6 5 4 4 2 2 1 0 0 1 2 3 5 8 13 17 21 23 21 19 16 13 10 9 8 8 10 13 16 19 21 22 22 22 22 22 22 22 21 18 15 11 8 5 3 2 2
9 8 7 6 5 5 5 6 6 6 7 7 7 6 6 6 6 6 6 6 6 5 4 4 3 2 2 2 2 2 3 4 6 8 11 14 17 20 21 19 16 13 11 9 8 7 7 8 12 16 20 22 24 24 24 24 23 22 21 18 14 10 6 4 3 3 3 4 5
8 8 8 7 6 6 5 6 6 7 7 7 6 6 6 6 6 6 6 6 5 5 5 4 4 4 4 5 6 6 8 9 11 13 14 16 17 17 16 13 10 9 8 8 8 9 11 14 18 22 25 26 26 24 23 22 19 16 12 8 6 4 3 3 4 5 6 6 6
8 8 8 8 7 6 6 7 7 8 8 8 8 8 7 7 7 7 7 7 6 6 6 6 7 8 9 10 10 11 12 13 14 14 15 15 14 12 11 9 8 8 10 11 14 18 21 24 26 27 26 24 21 18 15 12 9 7 4 3 4 4 5 5 6 5 5 5 4
9 9 9 8 7 6 6 6 7 8 8 9 9 9 9 9 9 9 9 9 9 9 10 10 11 12 12 12 12 13 13 14 14 15 15 14 14 13 12 12 13 15 18 21 24 26 28 28 25 22 18 14 10 8 6 5 4 4 4 4 5 5 6 6 5 4 4 4 4
Height
3092 3092 3092 3092 3092 3093 3093 3093 3094 3094 3094 3094 3094 3094 3095 3095 3095 3095 3095 3095 3094 3094 3095 3095 3095 3096 3095 3095 3095 3095 3095 3095 3096 3097 3097 3097 3097 3097 3096 3096 3095 3095 3095 3094 3095 3095 3095 3096 3096 3096 3095 3095 3095 3094 3094 3094 3094 3093 3092 3091 3090 3090 3090 3090 3090 3089 3089 3089 3089
3089 3090 3090 3090 3090 3090 3090 3091 3091 3092 3092 3092 3092 3093 3093 3093 3093 3093 3093 3092 3092 3092 3092 3092 3093 3093 3093 3093 3092 3091 3091 3091 3093 3093 3094 3094 3094 3094 3094 3094 3093 3093 3093 3093 3093 3093 3093 3093 3093 3092 3092 3091 3091 3091 3090 3090 3090 3090 3090 3089 3088 3088 3087 3087 3087 3087 3087 3086 3086
3087 3087 3087 3087 3088 3088 3088 3089 3089 3089 3090 3090 3090 3090 3090 3090 3091 3091 3090 3090 3090 3090 3089 3090 3090 3090 3090 3090 3089 3089 3089 3090 3090 3090 3090 3091 3091 3091 3091 3091 3091 3091 3091 3090 3090 3090 3090 3090 3089 3089 3089 3089 3089 3088 3088 3088 3088 3087 3087 3086 3086 3085 3085 3084 3084 3084 3084 3084 3084
3085 3085 3085 3085 3085 3085 3086 3086 3086 3087 3087 3087 3088 3088 3088 3089 3089 3089 3089 3089 3089 3088 3088 3088 3088 3088 3087 3086 3086 3086 3086 3087 3087 3088 3088 3088 3089 3089 3089 3089 3089 3089 3088 3088 3087 3087 3087 3087 3087 3086 3086 3086 3086 3085 3085 3085 3085 3084 3084 3083 3083 3083 3082 3082 3081 3081 3081 3081 3080
3082 3082 3083 3083 3083 3083 3084 3084 3084 3085 3085 3085 3085 3085 3086 3086 3086 3087 3087 3087 3086 3086 3086 3086 3085 3084 3084 3084 3084 3084 3084 3084 3085 3085 3086 3087 3087 3087 3087 3087 3086 3086 3085 3085 3085 3085 3085 3085 3084 3084 3084 3083 3083 3083 3082 3082 3081 3081 3080 3080 3080 3080 3080 3079 3078 3078 3078 3078 3077
3079 3080 3080 3081 3081 3081 3081 3082 3082 3082 3082 3083 3083 3083 3083 3084 3084 3084 3085 3085 3085 3085 3084 3083 3082 3082 3082 3082 3082 3082 3082 3082 3083 3085 3085 3086 3085 3085 3085 3085 3084 3084 3083 3083 3083 3083 3083 3082 3082 3081 3081 3081 3080 3080 3079 3079 3079 3078 3077 3077 3077 3077 3077 3076 3075 3075 3075 3075 3074
3077 3077 3078 3078 3079 3079 3079 3079 3080 3080 3080 3080 3080 3080 3081 3081 3081 3082 3082 3082 3082 3081 3081 3080 3080 3080 3080 3080 3080 3080 3080 3081 3082 3084 3084 3084 3084 3083 3083 3082 3082 3082 3081 3081 3081 3081 3080 3080 3080 3080 3079 3079 3078 3078 3077 3077 3076 3075 3075 3074 3074 3074 3074 3073 3073 3072 3072 3071 3071
3075 3075 3075 3075 3076 3076 3076 3077 3077 3077 3078 3078 3078 3079 3079 3079 3079 3079 3079 3079 3078 3078 3078 3078 3078 3078 3077 3077 3077 3078 3079 3080 3081 3082 3082 3082 3081 3081 3080 3080 3080 3080 3080 3080 3079 3079 3079 3079 3078 3078 3077 3077 3076 3076 3075 3075 3074 3073 3072 3072 3072 3071 3071 3070 3070 3070 3069 3068 3068
3072 3072 3073 3073 3073 3073 3074 3074 3075 3075 3075 3075 3076 3076 3077 3076 3076 3075 3075 3075 3075 3076 3076 3075 3075 3075 3075 3076 3076 3077 3078 3079 3080 3080 3080 3080 3079 3079 3079 3078 3078 3078 3078 3078 3077 3077 3077 3077 3076 3076 3075 3075 3074 3073 3073 3072 3071 3071 3070 3070 3069 3069 3069 3068 3067 3067 3066 3065 3065
3069 3070 3070 3070 3070 3070 3071 3071 3072 3072 3073 3073 3074 3074 3074 3073 3072 3071 3071 3072 3073 3073 3073 3072 3072 3073 3074 3075 3075 3076 3076 3077 3077 3077 3077 3077 3077 3077 3077 3077 3076 3076 3076 3076 3075 3075 3075 3075 3074 3074 3073 3073 3072 3071 3070 3070 3069 3068 3067 3067 3067 3066 3066 3065 3065 3064 3063 3062 3062
3067 3067 3067 3067 3068 3068 3069 3069 3070 3070 3070 3070 3070 3070 3069 3069 3069 3069 3070 3070 3070 3070 3070 3070 3071 3072 3072 3073 3073 3074 3074 3074 3075 3075 3075 3075 3075 3075 3075 3075 3074 3074 3074 3074 3073 3073 3073 3072 3072 3071 3071 3070 3070 3069 3068 3067 3067 3066 3065 3065 3064 3064 3063 3062 3062 3061 3060 3060 3059
3064 3065 3065 3065 3065 3066 3066 3067 3067 3067 3067 3066 3066 3066 3066 3066 3067 3068 3068 3068 3068 3068 3068 3069 3070 3070 3070 3071 3071 3071 3071 3072 3072 3072 3072 3072 3072 3072 3072 3072 3072 3072 3071 3071 3071 3071 3071 3070 3070 3069 3069 3068 3068 3067 3066 3065 3065 3064 3063 3062 3061 3061 3060 3060 3059 3058 3057 3057 3056
3062 3062 3063 3063 3063 3064 3064 3064 3064 3064 3063 3063 3063 3064 3065 3065 3066 3066 3066 3067 3067 3066 3067 3067 3067 3068 3068 3069 3069 3069 3069 3069 3069 3069 3070 3070 3070 3070 3070 3070 3070 3070 3069 3069 3069 3069 3069 3068 3067 3067 3066 3066 3065 3065 3064 3063 3062 3061 3060 3060 3059 3058 3057 3056 3056 3055 3054 3054 3053
3060 3060 3061 3061 3061 3061 3061 3061 3060 3060 3061 3061 3062 3063 3063 3064 3064 3064 3064 3064 3065 3065 3064 3065 3065 3065 3066 3066 3066 3066 3066 3067 3067 3067 3067 3067 3067 3067 3067 3067 3067 3067 3067 3067 3067 3067 3066 3066 3065 3065 3064 3064 3063 3062 3062 3061 3060 3059 3059 3058 3057 3055 3055 3053 3053 3052 3052 3051 3050
3058 3059 3059 3059 3059 3058 3058 3058 3058 3059 3060 3060 3060 3061 3061 3061 3062 3062 3062 3062 3062 3062 3062 3062 3062 3063 3063 3064 3064 3064 3064 3064 3064 3065 3065 3065 3065 3065 3065 3065 3065 3065 3065 3065 3065 3065 3064 3064 3063 3063 3062 3061 3061 3060 3060 3059 3058 3057 3056 3055 3054 3053 3052 3050 3050 3050 3049 3048 3047
3056 3056 3056 3056 3056 3056 3056 3057 3057 3058 3058 3059 3059 3059 3059 3059 3059 3059 3059 3059 3059 3060 3060 3060 3060 3060 3060 3061 3061 3061 3062 3062 3062 3062 3062 3062 3063 3063 3063 3063 3063 3063 3063 3063 3062 3062 3062 3061 3061 3060 3060 3059 3059 3058 3057 3056 3055 3055 3054 3053 3052 3050 3049 3048 3048 3047 3047 3046 3045
3055 3055 3055 3054 3054 3055 3055 3055 3056 3056 3056 3056 3056 3056 3056 3057 3057 3057 3057 3057 3057 3057 3057 3057 3058 3058 3058 3058 3059 3059 3059 3060 3060 3060 3060 3060 3060 3060 3060 3060 3061 3061 3060 3060 3060 3060 3060 3059 3059 3058 3058 3057 3056 3055 3055 3054 3053 3052 3051 3050 3049 3048 3046 3046 3045 3045 3045 3044 3043
3053 3053 3053 3053 3053 3053 3053 3054 3054 3054 3054 3054 3054 3054 3054 3054 3054 3054 3054 3055 3055 3055 3055 3055 3055 3056 3056 3056 3056 3056 3057 3057 3057 3058 3058 3058 3058 3058 3058 3058 3058 3058 3058 3058 3058 3057 3057 3057 3056 3056 3055 3055 3054 3053 3052 3051 3050 3049 3049 3048 3047 3045 3044 3044 3044 3043 3043 3041 3040
3051 3051 3051 3051 3051 3051 3051 3052 3051 3051 3051 3051 3052 3052 3052 3052 3052 3052 3052 3052 3052 3052 3053 3053 3053 3053 3054 3054 3054 3054 3055 3055 3055 3055 3056 3056 3056 3056 3056 3056 3056 3056 3055 3055 3055 3055 3055 3054 3054 3053 3052 3052 3051 3050 3049 3048 3047 3047 3046 3045 3044 3043 3042 3042 3042 3041 3040 3040 3039
3050 3050 3049 3049 3050 3050 3050 3050 3050 3050 3050 3050 3050 3050 3050 3050 3050 3050 3050 3050 3050 3050 3050 3050 3051 3051 3051 3051 3052 3052 3052 3053 3053 3053 3053 3054 3054 3054 3054 3054 3053 3053 3053 3053 3052 3052 3052 3051 3051 3050 3050 3049 3048 3047 3046 3046 3045 3045 3044 3043 3041 3041 3040 3040 3039 3039 3038 3037 3036
3048 3048 3048 3048 3047 3047 3047 3047 3047 3047 3048 3048 3048 3048 3048 3048 3048 3048 3047 3047 3047 3048 3048 3048 3049 3049 3049 3049 3049 3050 3050 3050 3051 3051 3051 3051 3052 3052 3051 3051 3051 3051 3051 3050 3050 3050 3049 3049 3048 3048 3047 3046 3046 3045 3044 3044 3043 3042 3041 3040 3039 3039 3038 3037 3036 3036 3035 3033 3033
3046 3046 3046 3046 3045 3045 3045 3045 3045 3045 3045 3045 3045 3045 3045 3045 3045 3045 3045 3045 3045 3045 3046 3046 3046 3046 3047 3047 3047 3047 3048 3048 3049 3049 3049 3050 3050 3050 3050 3049 3049 3049 3049 3048 3048 3047 3047 3046 3046 3045 3045 3044 3043 3043 3042 3041 3041 3040 3039 3038 3037 3036 3035 3035 3034 3032 3031 3030 3030
3045 3045 3045 3044 3044 3044 3044 3044 3044 3044 3044 3044 3043 3043 3043 3043 3043 3043 3043 3043 3043 3043 3044 3044 3044 3044 3045 3045 3045 3045 3046 3046 3047 3047 3047 3048 3048 3048 3048 3047 3047 3047 3047 3046 3046 3045 3045 3044 3044 3043 3042 3041 3041 3040 3040 3040 3039 3038 3037 3036 3035 3034 3034 3033 3032 3030 3029 3028 3027
3043 3043 3043 3043 3043 3042 3042 3042 3042 3042 3042 3042 3041 3041 3041 3041 3041 3041 3041 3041 3041 3041 3042 3042 3042 3042 3043 3043 3044 3044 3045 3045 3045 3045 3046 3046 3046 3046 3046 3046 3046 3045 3045 3045 3044 3043 3043 3042 3041 3040 3040 3039 3039 3038 3038 3038 3037 3036 3035 3033 3033 3032 3032 3031 3030 3029 3028 3027 3026
3042 3041 3041 3041 3041 3041 3041 3041 3040 3040 3040 3040 3040 3040 3040 3040 3040 3040 3040 3040 3040 3040 3040 3040 3040 3041 3041 3042 3042 3043 3043 3043 3044 3044 3044 3044 3045 3045 3045 3044 3044 3044 3043 3043 3042 3041 3040 3040 3039 3038 3037 3037 3036 3036 3036 3036 3035 3034 3032 3031 3031 3030 3030 3028 3027 3026 3026 3026 3025
3040 3040 3040 3040 3040 3039 3039 3039 3039 3038 3038 3038 3038 3038 3038 3038 3038 3038 3038 3038 3038 3039 3039 3039 3039 3040 3040 3040 3041 3041 3041 3042 3042 3042 3043 3043 3043 3043 3043 3043 3043 3042 3041 3041 3040 3039 3038 3037 3036 3036 3035 3035 3035 3035 3034 3034 3033 3032 3031 3030 3030 3029 3028 3026 3025 3025 3025 3025 3024
3039 3038 3038 3038 3038 3037 3037 3037 3037 3037 3037 3037 3037 3037 3037 3037 3037 3037 3037 3037 3037 3037 3038 3038 3038 3038 3039 3039 3040 3040 3040 3040 3040 3041 3041 3041 3041 3041 3041 3041 3041 3040 3039 3039 3038 3037 3036 3035 3034 3034 3033 3033 3033 3033 3033 3032 3031 3030 3030 3029 3028 3027 3026 3025 3025 3024 3023 3023 3022
3037 3037 3036 3036 3036 3036 3036 3036 3036 3036 3036 3036 3036 3036 3036 3036 3036 3036 3036 3036 3036 3036 3037 3037 3037 3037 3038 3038 3038 3038 3039 3039 3039 3039 3039 3039 3039 3039 3039 3039 3039 3038 3037 3036 3036 3035 3034 3033 3032 3032 3031 3031 3031 3031 3030 3030 3029 3029 3028 3028 3027 3026 3025 3025 3024 3023 3022 3022 3021
3035 3035 3035 3034 3034 3035 3035 3035 3035 3035 3035 3035 3035 3035 3035 3035 3035 3035 3035 3035 3035 3035 3035 3036 3036 3036 3036 3037 3037 3037 3037 3037 3037 3037 3037 3037 3037 3037 3037 3037 3037 3036 3036 3035 3034 3033 3032 3032 3031 3030 3030 3030 3030 3029 3029 3028 3028 3027 3027 3026 3026 3025 3025 3024 3023 3022 3021 3021 3020
3033 3033 3033 3033 3033 3034 3034 3034 3034 3034 3034 3035 3035 3035 3035 3035 3035 3035 3035 3035 3035 3035 3035 3035 3035 3035 3035 3035 3035 3035 3035 3035 3036 3036 3035 3035 3035 3035 3035 3035 3035 3035 3034 3033 3033 3032 3031 3030 3030 3029 3029 3028 3028 3027 3027 3027 3026 3026 3026 3025 3025 3024 3024 3023 3022 3021 3020 3020 3020
3032 3032 3032 3032 3033 3033 3033 3034 3034 3034 3034 3034 3034 3034 3034 3034 3034 3034 3034 3034 3034 3034 3034 3034 3034 3034 3034 3034 3034 3034 3034 3034 3034 3034 3034 3034 3034 3034 3034 3034 3034 3033 3032 3032 3031 3030 3030 3029 3028 3028 3027 3026 3026 3025 3025 3025 3025 3025 3024 3024 3023 3023 3022 3021 3020 3020 3019 3019 3018
3031 3031 3031 3031 3032 3032 3033 3033 3033 3033 3033 3033 3033 3033 3033 3033 3033 3033 3033 3033 3033 3033 3033 3033 3033 3033 3033 3033 3033 3033 3033 3033 3033 3033 3033 3033 3033 3033 3033 3032 3032 3031 3030 3030 3029 3029 3028 3028 3027 3026 3025 3025 3025 3025 3024 3024 3024 3023 3023 3022 3021 3020 3020 3019 3018 3018 3018 3017 3017
3030 3030 3030 3031 3031 3031 3032 3032 3032 3032 3032 3032 3032 3032 3032 3032 3032 3032 3032 3032 3032 3032 3031 3031 3031 3031 3031 3031 3031 3031 3031 3031 3031 3032 3032 3032 3031 3031 3031 3030 3030 3029 3029 3028 3028 3027 3027 3026 3025 3025 3024 3024 3024 3023 3023 3022 3022 3021 3021 3020 3020 3019 3018 3017 3017 3017 3016 3016 3016
3029 3029 3030 3030 3030 3030 3030 3030 3031 3031 3031 3031 3031 3031 3031 3031 3031 3031 3031 3031 3031 3030 3030 3030 3030 3030 3030 3030 3030 3030 3030 3030 3030 3030 3030 3030 3030 3029 3029 3029 3028 3028 3027 3027 3026 3025 3025 3025 3024 3024 3023 3023 3023 3022 3022 3021 3021 3020 3019 3019 3018 3017 3017 3016 3016 3016 3016 3016 3016
3028 3028 3029 3029 3029 3029 3029 3029 3030 3030 3030 3030 3030 3030 3030 3030 3030 3030 3030 3030 3030 3030 3030 3030 3030 3030 3030 3030 3030 3030 3030 3030 3029 3029 3029 3028 3028 3028 3027 3027 3027 3026 3026 3025 3025 3024 3024 3023 3023 3023 3022 3022 3021 3021 3020 3020 3019 3019 3018 3017 3017 3016 3016 3016 3016 3016 3016 3016 3016
3027 3027 3027 3028 3028 3028 3028 3028 3028 3028 3028 3029 3029 3029 3029 3029 3029 3029 3029 3029 3029 3029 3029 3029 3029 3029 3029 3029 3029 3028 3028 3028 3027 3027 3027 3027 3026 3026 3026 3025 3025 3025 3025 3024 3023 3023 3023 3022 3022 3022 3021 3021 3020 3020 3019 3019 3018 3018 3017 3017 3016 3016 3016 3016 3016 3016 3016 3016 3016
3025 3026 3026 3026 3026 3026 3026 3027 3027 3027 3027 3027 3027 3027 3028 3028 3028 3028 3028 3028 3028 3028 3028 3028 3028 3028 3028 3028 3027 3027 3026 3026 3025 3025 3025 3025 3025 3025 3024 3024 3024 3023 3023 3023 3022 3022 3022 3021 3021 3021 3020 3020 3019 3019 3018 3018 3017 3017 3017 3017 3017 3016 3016 3016 3016 3016 3016 3015 3015
3025 3025 3025 3025 3025 3025 3025 3025 3026 3026 3026 3026 3026 3026 3026 3026 3026 3026 3027 3027 3027 3026 3027 3027 3027 3027 3026 3026 3026 3025 3025 3025 3024 3024 3024 3024 3024 3023 3023 3022 3022 3022 3022 3021 3021 3021 3020 3020 3020 3020 3019 3019 3018 3018 3017 3017 3017 3017 3017 3017 3017 3017 3016 3016 3016 3015 3015 3015 3015
3023 3024 3024 3024 3024 3024 3024 3025 3025 3025 3025 3025 3025 3025 3025 3025 3025 3025 3025 3025 3025 3025 3025 3025 3025 3025 3025 3025 3024 3024 3024 3023 3023 3023 3023 3022 3022 3022 3021 3021 3021 3021 3020 3020 3020 3020 3019 3019 3019 3018 3018 3018 3018 3017 3017 3017 3017 3017 3017 3017 3016 3016 3016 3016 3015 3015 3014 3014 3014
3022 3022 3023 3023 3023 3023 3023 3024 3024 3024 3024 3024 3024 3024 3024 3024 3024 3024 3024 3024 3024 3024 3024 3024 3024 3024 3024 3024 3023 3023 3022 3022 3022 3021 3021 3021 3021 3021 3020 3020 3020 3020 3019 3019 3019 3019 3018 3018 3018 3018 3018 3017 3017 3017 3017 3017 3017 3017 3016 3016 3016 3015 3015 3015 3015 3014 3014 3013 3013
3021 3021 3021 3021 3022 3022 3022 3023 3023 3023 3023 3023 3023 3023 3023 3023 3023 3023 3023 3023 3023 3023 3023 3023 3023 3023 3022 3022 3022 3021 3021 3021 3020 3020 3020 3020 3020 3020 3019 3019 3019 3018 3018 3018 3018 3018 3018 3018 3018 3018 3017 3017 3017 3017 3017 3017 3016 3016 3016 3016 3015 3015 3015 3014 3014 3013 3013 3013 3012